{"data":{"norad_id":52852,"intl_designator":"2022-062Y","name":"STARLINK-4184","alt_names":[],"object_type":"PAYLOAD","status":"ACTIVE","operator":null,"country":"US","launch_date":"2022-06-17","launch_site_code":"AFETR","launch_vehicle":null,"mission":null,"orbit_class":"UNKNOWN","rcs_meters":null,"size_class":null,"mass_kg":null,"dimensions":null,"purposes":["comms"],"wikipedia_slug":null,"has_3d_model":false,"image_url":null,"decayed_at":null,"tle_current":{"epoch":"2026-09-20T03:58:38.075808Z","epoch_age_seconds":97711,"freshness":"FRESH","line1":"1 52852U 22062Y   26263.16571847 -.00000073  00000+0  89714-5 0  9996","line2":"2 52852  53.1599 218.9302 0001286  88.8871 271.2278 15.34393727235449","mean_motion":15.34393727,"eccentricity":0.0001286,"inclination_deg":53.1599,"raan_deg":218.9302,"arg_perigee_deg":88.8871,"mean_anomaly_deg":271.2278,"bstar":8.9714e-6,"rev_number":23544,"period_min":93.84814175534,"perigee_km":461.842150496,"apogee_km":463.60161940121,"semimajor_km":6840.8588849486,"source":"CELESTRAK","updated_at":"2026-09-20T09:00:40.115299Z"}}}